2016-07-06 00:00:24 r, 18.71m,0000000003Hz,0000158404c,0000000.344s, 032.8C,00002195
2016-07-06 00:10:25 r, 18.73m,0000000003Hz,0000161246c,0000000.350s, 032.8C,00002195
2016-07-06 00:20:24 r, 18.74m,0000000003Hz,0000163231c,0000000.354s, 032.8C,00002195
2016-07-06 00:30:24 r, 18.74m,0000000003Hz,0000162250c,0000000.352s, 032.5C,00002195
2016-07-06 00:40:24 r, 18.74m,0000000002Hz,0000162206c,0000000.352s, 032.5C,00002195
2016-07-06 00:50:25 r, 18.74m,0000000003Hz,0000163149c,0000000.354s, 032.2C,00002195
2016-07-06 01:00:24 r, 18.74m,0000000003Hz,0000162913c,0000000.354s, 032.2C,00002195
2016-07-06 01:10:24 r, 18.75m,0000000003Hz,0000164185c,0000000.356s, 032.2C,00002195
2016-07-06 01:20:24 r, 18.72m,0000000003Hz,0000160266c,0000000.348s, 031.9C,00002195
2016-07-06 01:30:24 r, 18.74m,0000000003Hz,0000163432c,0000000.355s, 031.9C,00002195
2016-07-06 01:40:24 r, 18.74m,0000000003Hz,0000163331c,0000000.354s, 031.9C,00002195
2016-07-06 01:50:24 r, 18.74m,0000000003Hz,0000162998c,0000000.354s, 031.9C,00002195
2016-07-06 02:00:25 r, 18.75m,0000000003Hz,0000164178c,0000000.356s, 031.9C,00002195
2016-07-06 02:10:24 r, 18.76m,0000000002Hz,0000166023c,0000000.360s, 031.5C,00002195
2016-07-06 02:20:24 r, 18.76m,0000000003Hz,0000166043c,0000000.360s, 031.5C,00002195
2016-07-06 02:30:25 r, 18.76m,0000000003Hz,0000165017c,0000000.358s, 031.5C,00002195
2016-07-06 02:40:24 r, 18.75m,0000000003Hz,0000163964c,0000000.356s, 031.5C,00002195
2016-07-06 02:50:27 r, 18.73m,0000000002Hz,0000162234c,0000000.352s, 031.2C,00002195
2016-07-06 03:00:25 r, 18.72m,0000000003Hz,0000161392c,0000000.350s, 031.2C,00002195
2016-07-06 03:10:24 r, 18.70m,0000000003Hz,0000158626c,0000000.344s, 031.2C,00002195
2016-07-06 03:20:25 r, 18.68m,0000000003Hz,0000154505c,0000000.335s, 031.2C,00002195
2016-07-06 03:30:27 r, 18.61m,0000000003Hz,0000144963c,0000000.315s, 030.9C,00002195
2016-07-06 03:40:24 r, 18.48m,0000000003Hz,0000128587c,0000000.279s, 030.9C,00002195
2016-07-06 03:50:25 r, 18.26m,0000000005Hz,0000105281c,0000000.228s, 030.9C,00002195
2016-07-06 04:00:24 r, 17.88m,0000000006Hz,0000073911c,0000000.160s, 030.6C,00002195
2016-07-06 04:10:25 r, 17.30m,0000000010Hz,0000043506c,0000000.094s, 030.6C,00002195
2016-07-06 04:20:25 r, 16.52m,0000000022Hz,0000021169c,0000000.046s, 030.6C,00002195
2016-07-06 04:30:25 r, 15.42m,0000000060Hz,0000007643c,0000000.017s, 030.2C,00002195
2016-07-06 04:40:25 r, 14.01m,0000000222Hz,0000000000c,0000000.000s, 030.2C,00002195
2016-07-06 04:50:27 r, 12.51m,0000000884Hz,0000000000c,0000000.000s, 030.2C,00002195
2016-07-06 05:00:25 r, 11.05m,0000003376Hz,0000000000c,0000000.000s, 029.9C,00002195
2016-07-06 05:10:27 r, 09.65m,0000012320Hz,0000000000c,0000000.000s, 029.9C,00002195
2016-07-06 05:20:25 r, 08.47m,0000036584Hz,0000000000c,0000000.000s, 029.6C,00002195
2016-07-06 05:30:25 r, 07.60m,0000081375Hz,0000000000c,0000000.000s, 029.9C,00002195
2016-07-06 05:40:25 r, 06.96m,0000146752Hz,0000000000c,0000000.000s, 029.6C,00002195
2016-07-06 05:50:25 r, 06.47m,0000229083Hz,0000000000c,0000000.000s, 029.6C,00002195
2016-07-06 06:00:25 r, 00.00m,0000404607Hz,0000000000c,0000000.000s, 029.9C,00002195
2016-07-06 06:10:25 r, 00.00m,0000564286Hz,0000000000c,0000000.000s, 029.9C,00002195
2016-07-06 06:20:25 r, 00.00m,0000564322Hz,0000000000c,0000000.000s, 030.2C,00002195
2016-07-06 06:30:27 r, 00.00m,0000564349Hz,0000000000c,0000000.000s, 030.6C,00002195
2016-07-06 06:40:25 r, 00.00m,0000564363Hz,0000000000c,0000000.000s, 030.9C,00002195
2016-07-06 06:50:25 r, 00.00m,0000564310Hz,0000000000c,0000000.000s, 030.9C,00002195
2016-07-06 07:00:25 r, 00.00m,0000564338Hz,0000000000c,0000000.000s, 030.9C,00002195
2016-07-06 07:10:25 r, 00.00m,0000564329Hz,0000000000c,0000000.000s, 030.6C,00002195
2016-07-06 07:20:25 r, 00.00m,0000564338Hz,0000000000c,0000000.000s, 030.6C,00002195
2016-07-06 07:30:25 r, 00.00m,0000564345Hz,0000000000c,0000000.000s, 030.9C,00002195
2016-07-06 07:40:25 r, 00.00m,0000564374Hz,0000000000c,0000000.000s, 030.9C,00002195
2016-07-06 07:50:25 r, 00.00m,0000564354Hz,0000000000c,0000000.000s, 030.9C,00002195
2016-07-06 08:00:27 r, 00.00m,0000564404Hz,0000000000c,0000000.000s, 031.2C,00002195
2016-07-06 08:10:25 r, 00.00m,0000564422Hz,0000000000c,0000000.000s, 031.5C,00002195
2016-07-06 08:20:25 r, 00.00m,0000564520Hz,0000000000c,0000000.000s, 031.5C,00002195
2016-07-06 08:30:25 r, 00.00m,0000564495Hz,0000000000c,0000000.000s, 031.9C,00002195
2016-07-06 08:40:25 r, 00.00m,0000564692Hz,0000000000c,0000000.000s, 032.8C,00002195
2016-07-06 08:50:27 r, 00.00m,0000564799Hz,0000000000c,0000000.000s, 034.1C,00002195
2016-07-06 09:00:25 r, 00.00m,0000564665Hz,0000000000c,0000000.000s, 033.5C,00002195
2016-07-06 09:10:25 r, 00.00m,0000564678Hz,0000000000c,0000000.000s, 033.1C,00002195
2016-07-06 09:20:25 r, 00.00m,0000565105Hz,0000000000c,0000000.000s, 036.4C,00002195
2016-07-06 09:30:25 r, 00.00m,0000565394Hz,0000000000c,0000000.000s, 039.6C,00002195
2016-07-06 09:40:25 r, 00.00m,0000565238Hz,0000000000c,0000000.000s, 039.3C,00002195
2016-07-06 09:50:25 r, 00.00m,0000565544Hz,0000000000c,0000000.000s, 042.2C,00002195
2016-07-06 10:00:25 r, 00.00m,0000565531Hz,0000000000c,0000000.000s, 043.1C,00002195
2016-07-06 10:10:27 r, 00.00m,0000565560Hz,0000000000c,0000000.000s, 042.5C,00002195
2016-07-06 10:20:25 r, 00.00m,0000565368Hz,0000000000c,0000000.000s, 041.2C,00002195
2016-07-06 10:30:25 r, 00.00m,0000565531Hz,0000000000c,0000000.000s, 042.5C,00002195
2016-07-06 10:40:25 r, 00.00m,0000565642Hz,0000000000c,0000000.000s, 044.1C,00002195
2016-07-06 10:50:27 r, 00.00m,0000565788Hz,0000000000c,0000000.000s, 045.7C,00002195
2016-07-06 11:00:25 r, 00.00m,0000565848Hz,0000000000c,0000000.000s, 046.0C,00002195
2016-07-06 11:10:25 r, 00.00m,0000565931Hz,0000000000c,0000000.000s, 047.0C,00002195
2016-07-06 11:20:25 r, 00.00m,0000565976Hz,0000000000c,0000000.000s, 048.3C,00002195
2016-07-06 11:30:25 r, 00.00m,0000566106Hz,0000000000c,0000000.000s, 048.6C,00002195
2016-07-06 11:40:25 r, 00.00m,0000566137Hz,0000000000c,0000000.000s, 049.9C,00002195
2016-07-06 11:50:25 r, 00.00m,0000565990Hz,0000000000c,0000000.000s, 049.3C,00002195
2016-07-06 12:00:26 r, 00.00m,0000566109Hz,0000000000c,0000000.000s, 050.6C,00002195
2016-07-06 12:10:25 r, 00.00m,0000566049Hz,0000000000c,0000000.000s, 050.9C,00002195
2016-07-06 12:20:26 r, 00.00m,0000566147Hz,0000000000c,0000000.000s, 051.8C,00002195
2016-07-06 12:30:26 r, 00.00m,0000566213Hz,0000000000c,0000000.000s, 053.1C,00002195
2016-07-06 12:40:25 r, 00.00m,0000566039Hz,0000000000c,0000000.000s, 051.8C,00002195
2016-07-06 12:50:26 r, 00.00m,0000566011Hz,0000000000c,0000000.000s, 051.8C,00002195
2016-07-06 13:00:25 r, 00.00m,0000566234Hz,0000000000c,0000000.000s, 052.5C,00002195
2016-07-06 13:10:25 r, 00.00m,0000566087Hz,0000000000c,0000000.000s, 051.2C,00002195
2016-07-06 13:20:25 r, 00.00m,0000566110Hz,0000000000c,0000000.000s, 052.8C,00002195
2016-07-06 13:30:26 r, 00.00m,0000566092Hz,0000000000c,0000000.000s, 052.2C,00002195
2016-07-06 13:40:25 r, 00.00m,0000566260Hz,0000000000c,0000000.000s, 054.4C,00002195
2016-07-06 13:50:25 r, 00.00m,0000566286Hz,0000000000c,0000000.000s, 054.7C,00002195
2016-07-06 14:00:25 r, 00.00m,0000566143Hz,0000000000c,0000000.000s, 053.8C,00002195
2016-07-06 14:10:25 r, 00.00m,0000566135Hz,0000000000c,0000000.000s, 054.1C,00002195
2016-07-06 14:20:25 r, 00.00m,0000565962Hz,0000000000c,0000000.000s, 052.2C,00002195
2016-07-06 14:30:25 r, 00.00m,0000565755Hz,0000000000c,0000000.000s, 049.9C,00002195
2016-07-06 14:40:25 r, 00.00m,0000565748Hz,0000000000c,0000000.000s, 049.3C,00002195
2016-07-06 14:50:25 r, 00.00m,0000565645Hz,0000000000c,0000000.000s, 047.7C,00002195
2016-07-06 15:00:26 r, 00.00m,0000565667Hz,0000000000c,0000000.000s, 048.6C,00002195
2016-07-06 15:10:25 r, 00.00m,0000565785Hz,0000000000c,0000000.000s, 048.6C,00002195
2016-07-06 15:20:27 r, 00.00m,0000566085Hz,0000000000c,0000000.000s, 053.1C,00002195
2016-07-06 15:30:26 r, 00.00m,0000566135Hz,0000000000c,0000000.000s, 054.7C,00002195
2016-07-06 15:40:25 r, 00.00m,0000566014Hz,0000000000c,0000000.000s, 053.1C,00002195
2016-07-06 15:50:25 r, 00.00m,0000565802Hz,0000000000c,0000000.000s, 050.9C,00002195
2016-07-06 16:00:25 r, 00.00m,0000565750Hz,0000000000c,0000000.000s, 048.9C,00002195
2016-07-06 16:10:25 r, 00.00m,0000565899Hz,0000000000c,0000000.000s, 051.5C,00002195
2016-07-06 16:20:25 r, 00.00m,0000566025Hz,0000000000c,0000000.000s, 052.5C,00002195
2016-07-06 16:30:28 r, 00.00m,0000566046Hz,0000000000c,0000000.000s, 053.1C,00002195
2016-07-06 16:40:25 r, 00.00m,0000566068Hz,0000000000c,0000000.000s, 053.1C,00002195
2016-07-06 16:50:25 r, 00.00m,0000566059Hz,0000000000c,0000000.000s, 053.1C,00002195
2016-07-06 17:00:26 r, 00.00m,0000566007Hz,0000000000c,0000000.000s, 052.5C,00002195
2016-07-06 17:10:25 r, 00.00m,0000565972Hz,0000000000c,0000000.000s, 052.5C,00002195
2016-07-06 17:20:25 r, 00.00m,0000565867Hz,0000000000c,0000000.000s, 051.8C,00002195
2016-07-06 17:30:26 r, 00.00m,0000565742Hz,0000000000c,0000000.000s, 050.6C,00002195
2016-07-06 17:40:25 r, 00.00m,0000565766Hz,0000000000c,0000000.000s, 050.2C,00002195
2016-07-06 17:50:25 r, 00.00m,0000565772Hz,0000000000c,0000000.000s, 050.6C,00002195
2016-07-06 18:00:26 r, 00.00m,0000565775Hz,0000000000c,0000000.000s, 050.6C,00002195
2016-07-06 18:10:28 r, 00.00m,0000565825Hz,0000000000c,0000000.000s, 049.6C,00002195
2016-07-06 18:20:25 r, 00.00m,0000565643Hz,0000000000c,0000000.000s, 048.9C,00002195
2016-07-06 18:30:26 r, 00.00m,0000565659Hz,0000000000c,0000000.000s, 048.6C,00002195
2016-07-06 18:40:28 r, 00.00m,0000565565Hz,0000000000c,0000000.000s, 048.3C,00002195
2016-07-06 18:50:25 r, 00.00m,0000565552Hz,0000000000c,0000000.000s, 048.0C,00002195
2016-07-06 19:00:26 r, 00.00m,0000565470Hz,0000000000c,0000000.000s, 047.3C,00002195
2016-07-06 19:10:26 r, 00.00m,0000565491Hz,0000000000c,0000000.000s, 047.0C,00002195
2016-07-06 19:20:28 r, 00.00m,0000565465Hz,0000000000c,0000000.000s, 046.7C,00002195
2016-07-06 19:30:26 r, 00.00m,0000565420Hz,0000000000c,0000000.000s, 046.4C,00002195
2016-07-06 19:40:26 r, 00.00m,0000565455Hz,0000000000c,0000000.000s, 046.0C,00002195
2016-07-06 19:50:26 r, 00.00m,0000565344Hz,0000000000c,0000000.000s, 045.7C,00002195
2016-07-06 20:00:27 r, 00.00m,0000565326Hz,0000000000c,0000000.000s, 045.1C,00002195
2016-07-06 20:10:26 r, 00.00m,0000565176Hz,0000000000c,0000000.000s, 044.1C,00002195
2016-07-06 20:20:25 r, 00.00m,0000565118Hz,0000000000c,0000000.000s, 042.8C,00002195
2016-07-06 20:30:26 r, 00.00m,0000565045Hz,0000000000c,0000000.000s, 041.9C,00002195
2016-07-06 20:40:25 r, 00.00m,0000565020Hz,0000000000c,0000000.000s, 040.6C,00002195
2016-07-06 20:50:25 r, 00.00m,0000564997Hz,0000000000c,0000000.000s, 039.6C,00002195
2016-07-06 21:00:26 r, 00.00m,0000454212Hz,0000000000c,0000000.000s, 038.6C,00002195
2016-07-06 21:10:25 r, 06.12m,0000318068Hz,0000000000c,0000000.000s, 037.7C,00002195
2016-07-06 21:20:28 r, 06.56m,0000212287Hz,0000000000c,0000000.000s, 037.0C,00002195
2016-07-06 21:30:26 r, 07.25m,0000112111Hz,0000000000c,0000000.000s, 036.4C,00002195
2016-07-06 21:40:26 r, 08.04m,0000054053Hz,0000000000c,0000000.000s, 035.7C,00002195
2016-07-06 21:50:25 r, 09.03m,0000021787Hz,0000000000c,0000000.000s, 035.4C,00002195
2016-07-06 22:00:26 r, 10.25m,0000007056Hz,0000000000c,0000000.000s, 035.1C,00002195
2016-07-06 22:10:25 r, 11.57m,0000002102Hz,0000000000c,0000000.000s, 034.8C,00002195
2016-07-06 22:20:25 r, 13.10m,0000000515Hz,0000000000c,0000000.000s, 034.8C,00002195
2016-07-06 22:30:26 r, 14.66m,0000000122Hz,0000003794c,0000000.008s, 034.4C,00002195
2016-07-06 22:40:25 r, 16.10m,0000000033Hz,0000014297c,0000000.031s, 034.1C,00002195
2016-07-06 22:50:25 r, 16.82m,0000000017Hz,0000027932c,0000000.061s, 034.1C,00002195
2016-07-06 23:00:28 r, 17.22m,0000000012Hz,0000040257c,0000000.087s, 033.8C,00002195
2016-07-06 23:10:25 r, 17.41m,0000000009Hz,0000048043c,0000000.104s, 033.8C,00002195
2016-07-06 23:20:25 r, 17.41m,0000000010Hz,0000047817c,0000000.104s, 033.8C,00002195
2016-07-06 23:30:26 r, 17.37m,0000000010Hz,0000046082c,0000000.100s, 033.8C,00002195
2016-07-06 23:40:27 r, 17.35m,0000000010Hz,0000045284c,0000000.098s, 033.8C,00002195
2016-07-06 23:50:25 r, 17.44m,0000000010Hz,0000049039c,0000000.106s, 033.5C,00002195
